Regional Weather Roundup
Issued by NWS Upton, NY

Current Version | Previous Version | Text Only | Print | Product List | Glossary On
Versions: 1 2 3 4 5 6 7 8 9 10 11 12 13 14 15 16 17 18 19 20 21 22 23 24 25 26 27 28 29 30 31 32 33 34 35 36 37 38 39 40 41 42 43 44 45 46 47 48 49 50
000 ASUS41 KOKX 240805 RWROKX REGIONAL WEATHER ROUNDUP NATIONAL WEATHER SERVICE NEW YORK NY 300 AM EST MON NOV 24 2014 NOTE: "FAIR" INDICATES FEW OR NO CLOUDS BELOW 12,000 FEET WITH NO SIGNIFICANT WEATHER AND/OR OBSTRUCTIONS TO VISIBILITY. NYZ071-072-176-178-NJZ106-104-240900- NEW YORK CITY METRO AREA CITY SKY/WX TMP DP RH WIND PRES REMARKS CENTRAL PARK RAIN 57 55 93 VRB7 29.86F FOG LAGUARDIA APRT RAIN 57 56 96 SE16G22 29.84F FOG KENNEDY INTL RAIN 59 55 87 SE16G24 29.85F FOG NEWARK/LIBERTY RAIN 52 51 98 SE12G21 29.82F FOG BRNX BOT. GARD N/A 55 54 94 SE6 29.85F TETERBORO LGT RAIN 57 54 88 SE13G24 29.81F FOG $$ NYZ177-179-078>081-240900- LONG ISLAND NEW YORK CITY SKY/WX TMP DP RH WIND PRES REMARKS FARMINGDALE CLOUDY 59 55 87 SE16G25 29.87F ISLIP LGT RAIN 57 54 89 SE14 29.89F FOG SHIRLEY LGT RAIN 57 54 89 SE12 29.93F FOG WESTHAMPTON LGT RAIN 58 55 90 SE13G23 29.95F MONTAUK POINT N/A 58 54 86 SE9G18 29.99F $$ NYZ052-065-067-240900- HUDSON VALLEY CITY SKY/WX TMP DP RH WIND PRES REMARKS WHITE PLAINS HVY RAIN 51 50 96 E10 29.85F VSB 1 NEWBURGH NOT AVBL MONTGOMERY RAIN 41 39 93 NE8 29.82F FOG POUGHKEEPSIE LGT RAIN 47 44 90 CALM 29.85F FOG ALBANY CLOUDY 51 40 65 S9 29.86F $$ NJZ001-105-106-008-010-013-015-019>022-104-240900- NEW JERSEY CITY SKY/WX TMP DP RH WIND PRES REMARKS NEWARK/LIBERTY RAIN 52 51 98 SE12G21 29.82F FOG TETERBORO LGT RAIN 57 54 88 SE13G24 29.81F FOG CALDWELL RAIN 51 49 92 E9 29.81F FOG MORRISTOWN RAIN 48 46 93 CALM 29.80F SOMERVILLE LGT RAIN 58 56 93 SE12G21 29.75F FOG SUSSEX RAIN 44 42 93 CALM 29.79F FOG ANDOVER N/A 53 51 93 S9 29.76F TRENTON RAIN 60 57 89 S16G24 29.75F FOG MILLVILLE LGT RAIN 61 59 93 S20G33 29.76F ATLANTIC CITY RAIN 60 59 96 S20G33 29.80F FOG WRIGHTSTOWN RAIN 61 61 100 S13G25 29.75F TOMS RIVER CLOUDY 57 57 100 SE12G21 29.81F BELMAR CLOUDY 59 54 82 SE18G26 29.81F $$ PAZ047>061-062-071-240900- EASTERN PENNSYLVANIA CITY SKY/WX TMP DP RH WIND PRES REMARKS PHILADELPHIA RAIN 63 59 87 S24G33 29.72F FOG ALLENTOWN HVY RAIN 56 52 86 SE16G22 29.71F FOG SCRANTON RAIN 55 49 80 SE20G30 29.64F $$ CTZ002-004>006-009-010-012-RIZ004-006-007-MAZ004-011-015-240900- SOUTHERN NEW ENGLAND IN CT CITY SKY/WX TMP DP RH WIND PRES REMARKS BRADLEY INTL CLOUDY 44 33 65 N6 29.95F HARTFORD LGT RAIN 44 38 79 SW6 29.94F DANBURY RAIN 45 42 89 N3 29.90F FOG WTRBRY/OXFORD CLOUDY 52 48 87 SE15G21 29.92F BRIDGEPORT LGT RAIN 51 50 96 E9 29.91F FOG MERIDEN RAIN 42 38 85 NW3 29.93F FOG NEW HAVEN LGT RAIN 57 50 77 E12 29.92F CHESTER LGT RAIN 52 50 93 SE7 29.95F GROTON CLOUDY 56 53 90 SE17 29.96F WILLIMANTIC CLOUDY 40 32 73 CALM 29.98F IN RI CITY SKY/WX TMP DP RH WIND PRES REMARKS PROVIDENCE CLOUDY 42 38 85 CALM 30.02F BLOCK ISLAND CLOUDY 57 52 82 SE16G22 29.99F WESTERLY CLOUDY 56 53 90 SE10 29.99F IN MA CITY SKY/WX TMP DP RH WIND PRES REMARKS BOSTON CLOUDY 43 41 93 CALM 30.04F WORCESTER CLOUDY 43 41 93 SE7 29.98F WESTFIELD CLOUDY 41 32 70 N5 29.95F PROVINCETOWN CLOUDY 50 48 93 SE9 30.07F NANTUCKET CLOUDY 52 50 93 SE13 30.07F $$ ANZ330-335-338-340-345-350-353-355-240900- COASTAL MARINE OBSERVATIONS STATION/POSITION TIME SKY/WX TEMP WIND PRES VSBY WAVE AIR SEA DIR/SP/G HT/PER (UTC) (F) (DEG/KT/KT) (MB) (MI) (FT/S) NY HARB ENTRANCE 0800 60 55 160/ 21/ 25 1010.7 3/ 4 4S FIRE IS 0800 53 N/A 3/ 3 20S FIRE ISLAND 0800 60 56 140/ 19/ 23 1011.3 3/ 4 23SW MTP 0800 N/A 3/ 6 HUDSON CANYON 0800 62 59 150/ 19/ 23 1012.9 3/ 4 EXECUTION ROCKS NOT AVBL WESTERN LI SOUND NOT AVBL CENTRAL LI SOUND NOT AVBL EASTERN LI SOUND NOT AVBL ROBBINS REEF 0800 58 150/ 23/ 29 1008.5 $$ >>>>>>>>>>>>>>>>>>>>>>>>>>>> KEY <<<<<<<<<<<<<<<<<<<<<<<<<<< > < > SKY/WX - SKY CONDITION/PRESENT WEATHER < > TMP - TEMPERATURE IN FAHRENHEIT < > DP - DEWPOINT IN FAHRENHEIT < > RH - RELATIVE HUMIDITY IN PERCENT < > WIND - DIRECTION AND SPEED IN MPH < > PRES - MEAN SEA LEVEL PRESSURE IN INCHES OF HG < > WCI - WIND CHILL INDEX < > VSB - VISIBILITY IN MILES < > HX - HEAT INDEX < > TC - TEMPERATURE IN CELSIUS < > VRB - VARIABLE WIND DIRECTION < > < >>>>>>>>>>>>>>>>>>>>>>>>>>>> KEY <<<<<<<<<<<<<<<<<<<<<<<<<<<

USA.gov is the U.S. government's official web portal to all federal, state and local government web resources and services.